EW4645 Weather Reports


Display with metric or nautical units.
time (UTC)temp
F
wind
direction
speed
MPH
gust
MPH
rain 1hr
in
rain 24hr
in
rain mn
in
humidity
%
barometer
mb
20181117102904 53 41 5.0 15.0 0.00 0.01 0.01 89 1022.5
20181117101400 53 45 7.0 15.0 0.00 0.01 0.01 88 1022.4
20181117095903 54 45 7.0 15.0 0.00 0.01 0.01 88 1022.5
20181117094400 54 48 6.0 16.0 0.00 0.01 0.01 88 1022.5
20181117092904 54 46 7.0 14.0 0.00 0.01 0.01 89 1022.5
20181117091400 54 46 6.0 14.0 0.00 0.01 0.01 89 1022.4
20181117085903 54 49 7.0 17.0 0.00 0.01 0.01 89 1022.2
20181117084400 54 53 8.0 16.0 0.00 0.01 0.01 89 1022.1
20181117082903 54 51 8.0 15.0 0.00 0.01 0.01 89 1022.0
20181117081400 54 53 8.0 18.0 0.00 0.01 0.01 89 1021.8
20181117075904 54 49 7.0 13.0 0.00 0.01 0.01 90 1021.8
20181117074400 54 53 9.0 16.0 0.00 0.01 0.01 89 1021.4
20181117072904 54 51 7.0 14.0 0.00 0.01 0.01 90 1021.3
20181117071400 54 58 7.0 14.0 0.00 0.01 0.01 90 1021.1
20181117065904 54 49 7.0 13.0 0.00 0.01 0.01 90 1021.2
20181117064400 54 52 6.0 13.0 0.00 0.01 0.01 90 1021.0
20181117062903 54 52 7.0 17.0 0.00 0.01 0.01 90 1020.9
20181117061400 55 60 7.0 14.0 0.00 0.01 0.01 90 1020.7
20181117055904 55 57 9.0 14.0 0.01 0.01 0.01 89 1020.5
20181117054400 55 57 8.0 20.0 0.01 0.01 0.01 89 1020.4
20181117052903 55 61 12.0 21.0 0.01 0.01 0.01 89 1020.2
20181117051400 55 61 9.0 24.0 0.01 0.01 0.01 89 1020.1
20181117045904 55 60 11.0 21.0 0.00 0.00 0.00 89 1020.1
20181117044400 55 60 10.0 22.0 0.00 0.00 0.00 90 1020.0
20181117042903 55 61 11.0 20.0 0.00 0.00 0.00 90 1020.0
20181117041400 55 64 11.0 22.0 0.00 0.01 0.00 90 1020.0
20181117035904 55 59 9.0 18.0 0.00 0.01 0.00 91 1020.0
20181117034400 54 55 8.0 15.0 0.00 0.01 0.00 91 1020.0
20181117032904 54 52 7.0 15.0 0.00 0.01 0.00 91 1020.0
20181117031400 55 53 8.0 14.0 0.00 0.01 0.00 91 1020.1
20181117025904 55 50 9.0 19.0 0.00 0.01 0.00 91 1020.0
20181117024401 54 53 8.0 16.0 0.00 0.01 0.00 91 1020.1
20181117022905 54 52 9.0 18.0 0.00 0.01 0.00 91 1020.1
20181117021401 54 51 7.0 15.0 0.00 0.01 0.00 91 1020.0
20181117015904 55 50 8.0 14.0 0.00 0.01 0.00 91 1020.0
20181117014400 55 52 9.0 17.0 0.00 0.01 0.00 91 1020.1
20181117012904 55 52 8.0 17.0 0.00 0.01 0.00 91 1020.1
20181117011401 55 50 8.0 16.0 0.00 0.01 0.00 91 1020.0
20181117005904 55 51 8.0 14.0 0.00 0.01 0.00 91 1020.0
20181117004401 55 52 8.0 16.0 0.00 0.01 0.00 91 1020.0
20181117002904 55 49 9.0 15.0 0.00 0.01 0.00 91 1020.0
20181117001401 55 49 7.0 14.0 0.00 0.01 0.00 91 1020.0
20181116235905 55 52 9.0 16.0 0.00 0.01 0.00 91 1020.0
20181116234401 55 50 8.0 17.0 0.00 0.01 0.01 91 1019.9
20181116232904 55 52 8.0 16.0 0.00 0.01 0.01 91 1019.9
20181116231401 55 53 9.0 18.0 0.00 0.01 0.01 91 1020.0
20181116225904 55 57 7.0 15.0 0.00 0.01 0.01 92 1020.0
20181116224400 55 60 8.0 16.0 0.00 0.01 0.01 92 1020.0
20181116222904 55 54 8.0 14.0 0.00 0.01 0.01 92 1020.0
20181116221400 55 53 7.0 15.0 0.00 0.01 0.01 93 1020.0
20181116215905 54 52 7.0 12.0 0.00 0.01 0.01 93 1020.0
20181116214401 55 53 7.0 13.0 0.00 0.01 0.01 92 1020.0
20181116212904 55 50 8.0 14.0 0.00 0.01 0.01 92 1020.0
20181116211401 55 47 7.0 12.0 0.00 0.01 0.01 92 1019.9
20181116205904 55 46 8.0 13.0 0.00 0.01 0.01 92 1019.8
20181116204402 55 43 4.0 15.0 0.00 0.01 0.01 92 1019.7
20181116202904 55 33 4.0 12.0 0.00 0.01 0.01 91 1019.7
20181116201402 55 43 5.0 8.0 0.00 0.01 0.01 91 1019.7
20181116195905 55 47 5.0 11.0 0.00 0.01 0.01 91 1019.6
20181116194401 55 44 6.0 12.0 0.00 0.01 0.01 90 1019.6
20181116192905 55 46 7.0 12.0 0.00 0.01 0.01 90 1019.7
20181116191401 55 51 8.0 15.0 0.00 0.01 0.01 89 1019.7
20181116185904 55 52 6.0 14.0 0.00 0.01 0.01 89 1019.7
20181116184402 55 49 7.0 12.0 0.00 0.01 0.01 89 1019.7
20181116182904 55 60 9.0 17.0 0.00 0.01 0.01 88 1019.7
20181116181401 55 57 9.0 17.0 0.00 0.01 0.01 88 1019.8
20181116175905 54 55 7.0 17.0 0.00 0.01 0.01 89 1019.9
20181116174401 54 59 9.0 17.0 0.00 0.01 0.01 89 1020.0
20181116172905 54 60 9.0 17.0 0.00 0.01 0.01 89 1019.8
20181116171401 54 59 9.0 21.0 0.00 0.01 0.01 89 1019.8
20181116165905 54 61 9.0 15.0 0.00 0.01 0.01 90 1019.6
20181116164401 54 60 9.0 19.0 0.00 0.01 0.01 90 1019.7
20181116162904 55 57 8.0 18.0 0.00 0.01 0.01 90 1019.6
20181116161402 54 59 5.0 13.0 0.00 0.01 0.01 90 1019.5
20181116155905 54 60 9.0 16.0 0.00 0.01 0.01 90 1019.4
20181116154402 54 64 5.0 15.0 0.00 0.01 0.01 91 1019.4
20181116152905 54 62 9.0 17.0 0.00 0.01 0.01 90 1019.4
20181116151402 54 57 5.0 15.0 0.00 0.01 0.01 91 1019.5
20181116145905 54 59 4.0 11.0 0.00 0.01 0.01 91 1019.5
20181116144402 54 64 3.0 9.0 0.00 0.01 0.01 90 1019.4
20181116142905 54 62 3.0 11.0 0.00 0.02 0.01 90 1019.5
20181116141401 54 72 3.0 9.0 0.00 0.02 0.01 90 1019.6
20181116135906 54 87 4.0 14.0 0.00 0.02 0.01 90 1019.7
20181116134402 54 83 5.0 11.0 0.00 0.02 0.01 90 1019.6
20181116132906 54 59 5.0 11.0 0.00 0.02 0.01 90 1019.6
20181116131402 54 68 3.0 9.0 0.00 0.02 0.01 89 1019.6
20181116125906 54 81 6.0 15.0 0.00 0.02 0.01 88 1019.7
20181116124401 54 61 3.0 9.0 0.00 0.02 0.01 89 1019.7
20181116122905 54 90 5.0 15.0 0.00 0.02 0.01 88 1019.7
20181116121401 54 67 5.0 16.0 0.00 0.02 0.01 88 1019.7
20181116115905 54 65 4.0 10.0 0.00 0.02 0.01 89 1019.7
20181116114402 54 90 6.0 17.0 0.00 0.02 0.01 88 1019.9
20181116112905 54 76 4.0 11.0 0.00 0.02 0.01 89 1020.1
20181116111401 54 89 6.0 13.0 0.00 0.02 0.01 90 1020.1
20181116105905 54 91 6.0 14.0 0.00 0.02 0.01 91 1020.1
20181116104401 54 91 6.0 15.0 0.00 0.02 0.01 91 1020.0